Middletown, RI

10:33 AM EST on December 06, 2016 (GMT -0500)
Newport State

Weather History for KUUU - July, 2014

Change the Weather History Date:

Thursday, July 3, 2014

  Actual Average Record
Temperature  
Mean Temperature 76 °F -  
Max Temperature 84 °F 76 °F 91 °F (2002)
Min Temperature 71 °F 61 °F 51 °F (2007)
Cooling Degree Days 12    
Growing Degree Days 26 (Base 50)    
Moisture  
Dew Point 71 °F    
Average Humidity 90    
Maximum Humidity 100    
Minimum Humidity 67    
Precipitation  
Precipitation 0.00 in - - ()
Sea Level Pressure  
Sea Level Pressure 29.96 in    
Wind  
Wind Speed 8 mph (SSW)    
Max Wind Speed 13 mph    
Max Gust Speed 21 mph    
Visibility 5 miles    
Events Fog , Rain    
Averages and records for this station are not official NWS values.
T = Trace of Precipitation, MM = Missing Value Source: NWS Daily Summary

Daily Weather History Graph

Daily Weather History Graph

Search for Another Location

Airport or City:

Trip Planner

Search our weather history database for the weather conditions in past years. The results will help you decide how hot, cold, wet, or windy it might be!

Date:

Astronomy

Jul. 03, 2014 Rise Set
Actual Time 5:15 AM EDT 8:22 PM EDT
Civil Twilight 4:42 AM EDT 8:56 PM EDT
Nautical Twilight 3:58 AM EDT 9:39 PM EDT
Astronomical Twilight 3:07 AM EDT 10:30 PM EDT
Moon 11:17 AM EDT (7/3) 11:38 PM EDT (7/3)
Length of Visible Light 16h 14m
Length of Day
15h 06m
Waxing Crescent, 33% of the Moon is Illuminated
Jul 3
Waxing Crescent
Jul 5
First Quarter
Jul 12
Full
Jul 18
Last Quarter
Jul 26
New

Hourly Weather History & Observations

Time (EDT) Temp. Heat Index Dew Point Humidity Pressure Visibility Wind Dir Wind Speed Gust Speed Precip Events Conditions
12:31 AM 73.0 °F - 71.1 °F 93% 29.94 in 2.0 mi SSW 10.4 mph 18.4 mph N/A   Overcast
12:40 AM 73.0 °F - 72.0 °F 96% 29.94 in 1.2 mi South 8.1 mph - N/A   Overcast
12:53 AM 73.0 °F - 72.0 °F 96% 29.94 in 1.2 mi SSW 8.1 mph - N/A   Overcast
1:22 AM 72.0 °F - 71.1 °F 97% 29.94 in 0.8 mi South 9.2 mph - N/A   Mist
1:53 AM 72.0 °F - 71.1 °F 97% 29.94 in 0.8 mi SSW 6.9 mph - N/A   Mist
2:01 AM 72.0 °F - 71.1 °F 97% 29.95 in 1.2 mi SSW 5.8 mph - N/A   Overcast
2:31 AM 72.0 °F - 71.1 °F 97% 29.93 in 2.5 mi South 5.8 mph - N/A   Overcast
2:53 AM 72.0 °F - 71.1 °F 97% 29.92 in 2.5 mi South 6.9 mph - N/A   Overcast
3:10 AM 72.0 °F - 71.1 °F 97% 29.93 in 1.0 mi South 9.2 mph - N/A   Overcast
3:18 AM 72.0 °F - 71.1 °F 97% 29.93 in 0.8 mi South 8.1 mph - N/A   Mist
3:38 AM 72.0 °F - 71.1 °F 97% 29.92 in 1.2 mi SSW 4.6 mph - N/A   Overcast
3:53 AM 72.0 °F - 71.1 °F 97% 29.92 in 1.0 mi South 6.9 mph - N/A   Overcast
4:07 AM 71.1 °F - 71.1 °F 100% 29.93 in 0.8 mi South 5.8 mph - N/A   Mist
4:53 AM 72.0 °F - 70.0 °F 93% 29.95 in 0.5 mi SSW 4.6 mph - N/A Fog Fog
5:53 AM 71.1 °F - 71.1 °F 100% 29.96 in 0.2 mi Calm Calm - N/A Fog Fog
6:53 AM 72.0 °F - 71.1 °F 97% 29.95 in 0.8 mi Calm Calm - N/A   Overcast
7:01 AM 72.0 °F - 71.1 °F 97% 29.95 in 1.5 mi Calm Calm - N/A   Overcast
7:09 AM 72.0 °F - 71.1 °F 97% 29.96 in 3.0 mi Calm Calm - N/A   Overcast
7:53 AM 72.0 °F - 71.1 °F 97% 29.96 in 9.0 mi West 3.5 mph - N/A   Overcast
8:28 AM 75.0 °F - 71.1 °F 87% 29.96 in 10.0 mi Calm Calm - N/A   Overcast
8:53 AM 77.0 °F - 72.0 °F 84% 29.96 in 10.0 mi Calm Calm - N/A   Mostly Cloudy
9:08 AM 78.1 °F - 71.1 °F 79% 29.97 in 10.0 mi Calm Calm - N/A   Partly Cloudy
10:53 AM 75.0 °F - 71.1 °F 87% 29.99 in 8.0 mi South 12.7 mph - N/A   Scattered Clouds
11:01 AM 75.0 °F - 71.1 °F 87% 30.00 in 7.0 mi South 9.2 mph - N/A   Mostly Cloudy
11:14 AM 75.0 °F - 71.1 °F 87% 30.00 in 1.8 mi South 12.7 mph - N/A   Overcast
11:23 AM 75.9 °F - 71.1 °F 85% 30.00 in 3.0 mi South 12.7 mph - N/A   Haze
11:53 AM 75.9 °F - 71.1 °F 85% 29.99 in 10.0 mi South 9.2 mph - N/A   Overcast
12:04 PM 78.1 °F - 72.0 °F 81% 29.99 in 10.0 mi South 11.5 mph - N/A   Overcast
12:53 PM 79.0 °F - 72.0 °F 79% 29.99 in 10.0 mi South 10.4 mph - N/A   Mostly Cloudy
1:05 PM 80.1 °F 84.2 °F 73.0 °F 79% 29.98 in 10.0 mi South 10.4 mph - N/A   Mostly Cloudy
1:53 PM 82.0 °F 86.7 °F 72.0 °F 71% 29.98 in 10.0 mi South 10.4 mph 16.1 mph N/A   Clear
3:53 PM 81.0 °F 84.1 °F 69.1 °F 67% 29.96 in 10.0 mi SSW 8.1 mph 17.3 mph N/A   Clear
4:53 PM 79.0 °F - 69.1 °F 72% 29.95 in 10.0 mi SSW 10.4 mph 17.3 mph N/A   Clear
5:53 PM 78.1 °F - 70.0 °F 76% 29.93 in 10.0 mi SSW 10.4 mph - N/A   Clear
6:38 PM 75.9 °F - 70.0 °F 82% 29.94 in 10.0 mi South 9.2 mph - N/A   Partly Cloudy
6:53 PM 75.9 °F - 71.1 °F 85% 29.94 in 10.0 mi South 9.2 mph - N/A   Clear
7:01 PM 75.9 °F - 71.1 °F 85% 29.95 in 10.0 mi SSW 8.1 mph - N/A   Partly Cloudy
7:16 PM 75.0 °F - 71.1 °F 87% 29.95 in 8.0 mi SSW 10.4 mph - N/A   Mostly Cloudy
7:53 PM 73.9 °F - 71.1 °F 91% 29.96 in 6.0 mi SSW 9.2 mph 16.1 mph N/A   Overcast
8:27 PM 73.0 °F - 70.0 °F 90% 29.97 in 6.0 mi SSW 9.2 mph - N/A   Mostly Cloudy
8:50 PM 73.4 °F - 69.8 °F 88% 29.98 in 8.0 mi SSW 9.2 mph - N/A   Overcast
8:53 PM 73.0 °F - 70.0 °F 90% 29.97 in 8.0 mi South 11.5 mph 19.6 mph N/A   Overcast
9:02 PM 73.0 °F - 70.0 °F 90% 29.99 in 6.0 mi SSW 10.4 mph 19.6 mph N/A   Overcast
9:16 PM 72.0 °F - 71.1 °F 97% 29.98 in 1.8 mi South 9.2 mph - N/A   Overcast
9:53 PM 73.0 °F - 72.0 °F 96% 29.99 in 3.0 mi SSW 12.7 mph 20.7 mph N/A   Overcast
10:34 PM 73.0 °F - 72.0 °F 96% 30.00 in 2.0 mi SSW 9.2 mph - N/A   Overcast
10:43 PM 73.0 °F - 72.0 °F 96% 30.00 in 1.8 mi SSW 8.1 mph - N/A   Overcast
10:53 PM 73.0 °F - 72.0 °F 96% 30.00 in 2.5 mi SSW 9.2 mph 20.7 mph N/A   Overcast
11:01 PM 73.0 °F - 72.0 °F 96% 30.01 in 4.0 mi Variable 5.8 mph - N/A   Overcast
11:16 PM 73.9 °F - 71.1 °F 91% 30.01 in 7.0 mi WNW 10.4 mph 17.3 mph 0.00 in Rain Light Rain
11:53 PM 73.0 °F - 66.0 °F 79% 30.01 in 10.0 mi NW 10.4 mph - 0.00 in   Scattered Clouds